This is the latest recevied weather packets stored in our database for station/object SK4BW-10. If no packets are shown the sender has not sent any weather packets the latest 10 day(s).
| Time | Temp. | Humidity | Pressure | Rain* | Wind** | Luminosity | Snow |
|---|---|---|---|---|---|---|---|
| 1777443607 | 3.33° C | 62% | 1026.6 hPa | - | - | - | - |
| 1777442706 | 3.33° C | 62% | 1026.5 hPa | - | - | - | - |
| 1777441805 | 2.78° C | 63% | 1026.6 hPa | - | - | - | - |
| 1777440903 | 2.78° C | 63% | 1026.5 hPa | - | - | - | - |
| 1777440002 | 2.22° C | 64% | 1026.6 hPa | - | - | - | - |
| 1777439101 | 1.67° C | 65% | 1026.6 hPa | - | - | - | - |
| 1777438200 | 1.67° C | 66% | 1026.5 hPa | - | - | - | - |
| 1777437299 | 1.11° C | 65% | 1026.4 hPa | - | - | - | - |
| 1777436398 | 1.11° C | 65% | 1026.4 hPa | - | - | - | - |
| 1777435498 | 1.11° C | 64% | 1026.2 hPa | - | - | - | - |
| 1777434597 | 1.11° C | 65% | 1026.1 hPa | - | - | - | - |
| 1777433696 | 1.11° C | 65% | 1025.9 hPa | - | - | - | - |
| 1777432796 | 1.11° C | 64% | 1026.1 hPa | - | - | - | - |
| 1777431895 | 1.11° C | 64% | 1025.9 hPa | - | - | - | - |
| 1777430995 | 1.11° C | 64% | 1026 hPa | - | - | - | - |
| 1777430095 | 1.11° C | 63% | 1026 hPa | - | - | - | - |
| 1777429193 | 1.67° C | 62% | 1026 hPa | - | - | - | - |
| 1777428292 | 1.67° C | 61% | 1025.9 hPa | - | - | - | - |
| 1777427391 | 1.67° C | 60% | 1025.9 hPa | - | - | - | - |
| 1777426490 | 2.22° C | 58% | 1025.9 hPa | - | - | - | - |
| 1777425590 | 2.22° C | 57% | 1025.8 hPa | - | - | - | - |
| 1777424689 | 2.22° C | 56% | 1025.7 hPa | - | - | - | - |
| 1777423789 | 2.22° C | 55% | 1025.7 hPa | - | - | - | - |
| 1777422888 | 2.78° C | 53% | 1025.7 hPa | - | - | - | - |
| 1777421987 | 2.78° C | 52% | 1025.7 hPa | - | - | - | - |
* Rain since midnight (hover to see other rain measurements)
** Current wind speed in m/s (hover to see current wind gust speed)